Weather in Kharpichan

Russia / Khabarovsk Krai     51°17′36″N   136°31′30″E
temp.,
°C
wind,
m/s
gust,
m/s
humid.,
%
clouds,
%
prec.,
mm/h
press.,
hPa
HPBL,
m
27 february, sat
sat2701:00−18s229740 0.0 103120
04:00−20s229620 0.0 103124
07:00−22sse23970 0.0 103136
10:00−19se249310 0.0 1029172
13:00−14se248879 0.0 1027312
16:00−13se369290 0.0 1024326
19:00−14se2695100 0.2 1022263
22:00−14se2496100 0.3 1018198
28 february, sun
sun2801:00−13sse1389100 0.0 1015113
04:00−13s3884100 0.0 1012210
07:00−16ssw238983 0.0 101234
10:00−12wsw148541 0.0 1012193
13:00−4w27681 0.0 10121502
16:00−6wnw596550 0.1 10131638
19:00−13wnw413690 0.0 1017501
22:00−16w314760 0.0 1020599
1 march, mon
mon101:00−17wnw4137167 0.0 1022558
04:00−21w3157550 0.0 1024579
07:00−22w314750 0.0 1025506
10:00−19wsw4116711 0.0 1026810
13:00−16w6106318 0.0 10251399
16:00−15w612609 0.0 10241543
19:00−20wnw413680 0.0 1026511
22:00−21wsw414730 0.0 1028726
2 march, tue
tue201:00−22wsw515700 0.0 1028787
04:00−25wsw414750 0.0 1029422
07:00−27wsw310780 0.0 1031232
10:00−21wsw411660 0.0 1030836
13:00−17wnw610590 0.0 10281403
16:00−16w59590 0.0 10281693
19:00−20w23750 0.0 102958
22:00−24wsw12750 0.0 103120
3 march, wed
wed301:00−26ssw22840 0.0 103020
04:00−27ssw22860 0.0 102919
07:00−28s22880 0.0 102820
10:00−23sse238529 0.0 1025200
13:00−18se358894 0.0 1021346
16:00−15se368992 0.0 1018339
19:00−18se2293100 0.0 101659
22:00−18sse239099 0.0 1015101